[{"OBJECT_NAME":"GSAT0101 (GALILEO-PFM)","OBJECT_ID":"2011-060A","EPOCH":"2026-09-11T15:54:44.036352","MEAN_MOTION":1.70475619,"ECCENTRICITY":0.00002522,"INCLINATION":56.9594,"RA_OF_ASC_NODE":339.4167,"ARG_OF_PERICENTER":59.2386,"MEAN_ANOMALY":300.8114,"EPHEMERIS_TYPE":0,"CLASSIFICATION_TYPE":"U","NORAD_CAT_ID":37846,"ELEMENT_SET_NO":999,"REV_AT_EPOCH":9259,"BSTAR":0,"MEAN_MOTION_DOT":-0.00000103,"MEAN_MOTION_DDOT":0},{"OBJECT_NAME":"GSAT0102 (GALILEO-FM2)","OBJECT_ID":"2011-060B","EPOCH":"2026-09-03T10:17:32.822304","MEAN_MOTION":1.70475714,"ECCENTRICITY":0.0001594,"INCLINATION":56.9635,"RA_OF_ASC_NODE":339.641,"ARG_OF_PERICENTER":329.3167,"MEAN_ANOMALY":62.9507,"EPHEMERIS_TYPE":0,"CLASSIFICATION_TYPE":"U","NORAD_CAT_ID":37847,"ELEMENT_SET_NO":999,"REV_AT_EPOCH":9246,"BSTAR":0,"MEAN_MOTION_DOT":-8.4e-7,"MEAN_MOTION_DDOT":0},{"OBJECT_NAME":"GSAT0103 (GALILEO-FM3)","OBJECT_ID":"2012-055A","EPOCH":"2026-09-11T16:53:55.952448","MEAN_MOTION":1.70473471,"ECCENTRICITY":0.00020469,"INCLINATION":55.86,"RA_OF_ASC_NODE":99.1697,"ARG_OF_PERICENTER":315.2788,"MEAN_ANOMALY":44.7968,"EPHEMERIS_TYPE":0,"CLASSIFICATION_TYPE":"U","NORAD_CAT_ID":38857,"ELEMENT_SET_NO":999,"REV_AT_EPOCH":8648,"BSTAR":0,"MEAN_MOTION_DOT":1.5e-7,"MEAN_MOTION_DDOT":0},{"OBJECT_NAME":"GSAT0201 (GALILEO 5)","OBJECT_ID":"2014-050A","EPOCH":"2026-09-12T04:38:39.647616","MEAN_MOTION":1.85519597,"ECCENTRICITY":0.16863369,"INCLINATION":48.7843,"RA_OF_ASC_NODE":269.8594,"ARG_OF_PERICENTER":182.7547,"MEAN_ANOMALY":176.1917,"EPHEMERIS_TYPE":0,"CLASSIFICATION_TYPE":"U","NORAD_CAT_ID":40128,"ELEMENT_SET_NO":999,"REV_AT_EPOCH":7993,"BSTAR":0,"MEAN_MOTION_DOT":-3.4e-7,"MEAN_MOTION_DDOT":0},{"OBJECT_NAME":"GSAT0202 (GALILEO 6)","OBJECT_ID":"2014-050B","EPOCH":"2026-09-11T08:53:55.337568","MEAN_MOTION":1.85520202,"ECCENTRICITY":0.16877405,"INCLINATION":48.8022,"RA_OF_ASC_NODE":268.9798,"ARG_OF_PERICENTER":183.432,"MEAN_ANOMALY":175.2535,"EPHEMERIS_TYPE":0,"CLASSIFICATION_TYPE":"U","NORAD_CAT_ID":40129,"ELEMENT_SET_NO":999,"REV_AT_EPOCH":8208,"BSTAR":0,"MEAN_MOTION_DOT":-2.9e-7,"MEAN_MOTION_DDOT":0},{"OBJECT_NAME":"GSAT0203 (GALILEO 7)","OBJECT_ID":"2015-017A","EPOCH":"2026-09-09T02:15:32.037120","MEAN_MOTION":1.70476378,"ECCENTRICITY":0.000446,"INCLINATION":56.7527,"RA_OF_ASC_NODE":339.3092,"ARG_OF_PERICENTER":251.6359,"MEAN_ANOMALY":108.3566,"EPHEMERIS_TYPE":0,"CLASSIFICATION_TYPE":"U","NORAD_CAT_ID":40544,"ELEMENT_SET_NO":999,"REV_AT_EPOCH":7063,"BSTAR":0,"MEAN_MOTION_DOT":-0.000001,"MEAN_MOTION_DDOT":0},{"OBJECT_NAME":"GSAT0204 (GALILEO 8)","OBJECT_ID":"2015-017B","EPOCH":"2026-09-11T16:42:58.663584","MEAN_MOTION":1.70475843,"ECCENTRICITY":0.00048357,"INCLINATION":56.7582,"RA_OF_ASC_NODE":339.2572,"ARG_OF_PERICENTER":241.3315,"MEAN_ANOMALY":118.6677,"EPHEMERIS_TYPE":0,"CLASSIFICATION_TYPE":"U","NORAD_CAT_ID":40545,"ELEMENT_SET_NO":999,"REV_AT_EPOCH":3372,"BSTAR":0,"MEAN_MOTION_DOT":-0.00000103,"MEAN_MOTION_DDOT":0},{"OBJECT_NAME":"GSAT0206 (GALILEO 10)","OBJECT_ID":"2015-045B","EPOCH":"2026-09-11T02:21:44.065152","MEAN_MOTION":1.70473136,"ECCENTRICITY":0.00025404,"INCLINATION":54.9256,"RA_OF_ASC_NODE":219.233,"ARG_OF_PERICENTER":349.0399,"MEAN_ANOMALY":10.9008,"EPHEMERIS_TYPE":0,"CLASSIFICATION_TYPE":"U","NORAD_CAT_ID":40890,"ELEMENT_SET_NO":999,"REV_AT_EPOCH":6850,"BSTAR":0,"MEAN_MOTION_DOT":-2e-8,"MEAN_MOTION_DDOT":0},{"OBJECT_NAME":"GSAT0209 (GALILEO 12)","OBJECT_ID":"2015-079A","EPOCH":"2026-09-10T02:15:20.222784","MEAN_MOTION":1.70473608,"ECCENTRICITY":0.00036987,"INCLINATION":55.8813,"RA_OF_ASC_NODE":98.9312,"ARG_OF_PERICENTER":16.5279,"MEAN_ANOMALY":343.5809,"EPHEMERIS_TYPE":0,"CLASSIFICATION_TYPE":"U","NORAD_CAT_ID":41174,"ELEMENT_SET_NO":999,"REV_AT_EPOCH":6622,"BSTAR":0,"MEAN_MOTION_DOT":2.1e-7,"MEAN_MOTION_DDOT":0},{"OBJECT_NAME":"GSAT0208 (GALILEO 11)","OBJECT_ID":"2015-079B","EPOCH":"2026-09-10T21:37:29.789472","MEAN_MOTION":1.70473654,"ECCENTRICITY":0.00051705,"INCLINATION":55.879,"RA_OF_ASC_NODE":98.9063,"ARG_OF_PERICENTER":45.8921,"MEAN_ANOMALY":314.2454,"EPHEMERIS_TYPE":0,"CLASSIFICATION_TYPE":"U","NORAD_CAT_ID":41175,"ELEMENT_SET_NO":999,"REV_AT_EPOCH":6665,"BSTAR":0,"MEAN_MOTION_DOT":1.8e-7,"MEAN_MOTION_DDOT":0},{"OBJECT_NAME":"GSAT0211 (GALILEO 14)","OBJECT_ID":"2016-030A","EPOCH":"2026-09-11T14:39:28.172736","MEAN_MOTION":1.70473146,"ECCENTRICITY":0.0003775,"INCLINATION":55.0761,"RA_OF_ASC_NODE":219.3188,"ARG_OF_PERICENTER":332.653,"MEAN_ANOMALY":27.2735,"EPHEMERIS_TYPE":0,"CLASSIFICATION_TYPE":"U","NORAD_CAT_ID":41549,"ELEMENT_SET_NO":999,"REV_AT_EPOCH":6414,"BSTAR":0,"MEAN_MOTION_DOT":-1e-8,"MEAN_MOTION_DDOT":0},{"OBJECT_NAME":"GSAT0210 (GALILEO 13)","OBJECT_ID":"2016-030B","EPOCH":"2026-09-11T06:45:02.825280","MEAN_MOTION":1.70473599,"ECCENTRICITY":0.0004075,"INCLINATION":55.0753,"RA_OF_ASC_NODE":219.3259,"ARG_OF_PERICENTER":253.3502,"MEAN_ANOMALY":106.5514,"EPHEMERIS_TYPE":0,"CLASSIFICATION_TYPE":"U","NORAD_CAT_ID":41550,"ELEMENT_SET_NO":999,"REV_AT_EPOCH":6413,"BSTAR":0,"MEAN_MOTION_DOT":-2e-8,"MEAN_MOTION_DDOT":0},{"OBJECT_NAME":"GSAT0207 (GALILEO 15)","OBJECT_ID":"2016-069A","EPOCH":"2026-09-11T13:26:53.992896","MEAN_MOTION":1.7047375,"ECCENTRICITY":0.00030374,"INCLINATION":55.5533,"RA_OF_ASC_NODE":98.6945,"ARG_OF_PERICENTER":359.7632,"MEAN_ANOMALY":0.3287,"EPHEMERIS_TYPE":0,"CLASSIFICATION_TYPE":"U","NORAD_CAT_ID":41859,"ELEMENT_SET_NO":999,"REV_AT_EPOCH":6087,"BSTAR":0,"MEAN_MOTION_DOT":1.5e-7,"MEAN_MOTION_DDOT":0},{"OBJECT_NAME":"GSAT0212 (GALILEO 16)","OBJECT_ID":"2016-069B","EPOCH":"2026-09-10T05:46:21.372960","MEAN_MOTION":1.70473888,"ECCENTRICITY":0.0003965,"INCLINATION":55.5502,"RA_OF_ASC_NODE":98.7259,"ARG_OF_PERICENTER":39.3601,"MEAN_ANOMALY":320.765,"EPHEMERIS_TYPE":0,"CLASSIFICATION_TYPE":"U","NORAD_CAT_ID":41860,"ELEMENT_SET_NO":999,"REV_AT_EPOCH":6110,"BSTAR":0,"MEAN_MOTION_DOT":1.9e-7,"MEAN_MOTION_DDOT":0},{"OBJECT_NAME":"GSAT0213 (GALILEO 17)","OBJECT_ID":"2016-069C","EPOCH":"2026-09-08T20:20:49.486272","MEAN_MOTION":1.70474341,"ECCENTRICITY":0.00021681,"INCLINATION":55.552,"RA_OF_ASC_NODE":98.7726,"ARG_OF_PERICENTER":331.3762,"MEAN_ANOMALY":28.7083,"EPHEMERIS_TYPE":0,"CLASSIFICATION_TYPE":"U","NORAD_CAT_ID":41861,"ELEMENT_SET_NO":999,"REV_AT_EPOCH":6094,"BSTAR":0,"MEAN_MOTION_DOT":2.1e-7,"MEAN_MOTION_DDOT":0},{"OBJECT_NAME":"GSAT0214 (GALILEO 18)","OBJECT_ID":"2016-069D","EPOCH":"2026-09-10T04:00:59.530752","MEAN_MOTION":1.70474047,"ECCENTRICITY":0.00023729,"INCLINATION":55.5429,"RA_OF_ASC_NODE":98.7287,"ARG_OF_PERICENTER":358.3065,"MEAN_ANOMALY":1.789,"EPHEMERIS_TYPE":0,"CLASSIFICATION_TYPE":"U","NORAD_CAT_ID":41862,"ELEMENT_SET_NO":999,"REV_AT_EPOCH":6109,"BSTAR":0,"MEAN_MOTION_DOT":2e-7,"MEAN_MOTION_DDOT":0},{"OBJECT_NAME":"GSAT0215 (GALILEO 19)","OBJECT_ID":"2017-079A","EPOCH":"2026-09-11T05:49:50.115360","MEAN_MOTION":1.70473895,"ECCENTRICITY":0.00033461,"INCLINATION":55.0541,"RA_OF_ASC_NODE":219.1395,"ARG_OF_PERICENTER":281.3163,"MEAN_ANOMALY":78.5923,"EPHEMERIS_TYPE":0,"CLASSIFICATION_TYPE":"U","NORAD_CAT_ID":43055,"ELEMENT_SET_NO":999,"REV_AT_EPOCH":5445,"BSTAR":0,"MEAN_MOTION_DOT":-2e-8,"MEAN_MOTION_DDOT":0},{"OBJECT_NAME":"GSAT0216 (GALILEO 20)","OBJECT_ID":"2017-079B","EPOCH":"2026-09-11T12:49:01.212384","MEAN_MOTION":1.70473999,"ECCENTRICITY":0.00046117,"INCLINATION":55.0545,"RA_OF_ASC_NODE":219.1316,"ARG_OF_PERICENTER":288.6464,"MEAN_ANOMALY":71.2497,"EPHEMERIS_TYPE":0,"CLASSIFICATION_TYPE":"U","NORAD_CAT_ID":43056,"ELEMENT_SET_NO":999,"REV_AT_EPOCH":5447,"BSTAR":0,"MEAN_MOTION_DOT":-1e-8,"MEAN_MOTION_DDOT":0},{"OBJECT_NAME":"GSAT0217 (GALILEO 21)","OBJECT_ID":"2017-079C","EPOCH":"2026-09-11T04:02:19.710816","MEAN_MOTION":1.70473968,"ECCENTRICITY":0.00040796,"INCLINATION":55.0524,"RA_OF_ASC_NODE":219.1392,"ARG_OF_PERICENTER":302.5197,"MEAN_ANOMALY":57.3871,"EPHEMERIS_TYPE":0,"CLASSIFICATION_TYPE":"U","NORAD_CAT_ID":43057,"ELEMENT_SET_NO":999,"REV_AT_EPOCH":5445,"BSTAR":0,"MEAN_MOTION_DOT":-2e-8,"MEAN_MOTION_DDOT":0},{"OBJECT_NAME":"GSAT0218 (GALILEO 22)","OBJECT_ID":"2017-079D","EPOCH":"2026-09-11T09:19:14.475072","MEAN_MOTION":1.70473958,"ECCENTRICITY":0.0005052,"INCLINATION":55.0528,"RA_OF_ASC_NODE":219.1309,"ARG_OF_PERICENTER":284.2678,"MEAN_ANOMALY":75.6223,"EPHEMERIS_TYPE":0,"CLASSIFICATION_TYPE":"U","NORAD_CAT_ID":43058,"ELEMENT_SET_NO":999,"REV_AT_EPOCH":5448,"BSTAR":0,"MEAN_MOTION_DOT":-2e-8,"MEAN_MOTION_DDOT":0},{"OBJECT_NAME":"GSAT0221 (GALILEO 25)","OBJECT_ID":"2018-060A","EPOCH":"2026-09-10T02:52:12.488736","MEAN_MOTION":1.70476218,"ECCENTRICITY":0.0004384,"INCLINATION":57.1351,"RA_OF_ASC_NODE":339.4875,"ARG_OF_PERICENTER":269.9725,"MEAN_ANOMALY":90.0208,"EPHEMERIS_TYPE":0,"CLASSIFICATION_TYPE":"U","NORAD_CAT_ID":43564,"ELEMENT_SET_NO":999,"REV_AT_EPOCH":5061,"BSTAR":0,"MEAN_MOTION_DOT":-0.00000101,"MEAN_MOTION_DDOT":0},{"OBJECT_NAME":"GSAT0222 (GALILEO 26)","OBJECT_ID":"2018-060B","EPOCH":"2026-09-06T05:35:54.496896","MEAN_MOTION":1.70475955,"ECCENTRICITY":0.000458,"INCLINATION":57.1403,"RA_OF_ASC_NODE":339.5966,"ARG_OF_PERICENTER":241.9595,"MEAN_ANOMALY":118.0319,"EPHEMERIS_TYPE":0,"CLASSIFICATION_TYPE":"U","NORAD_CAT_ID":43565,"ELEMENT_SET_NO":999,"REV_AT_EPOCH":5059,"BSTAR":0,"MEAN_MOTION_DOT":-9.3e-7,"MEAN_MOTION_DDOT":0},{"OBJECT_NAME":"GSAT0219 (GALILEO 23)","OBJECT_ID":"2018-060C","EPOCH":"2026-08-30T09:57:42.200928","MEAN_MOTION":1.70476242,"ECCENTRICITY":0.00035149,"INCLINATION":57.1426,"RA_OF_ASC_NODE":339.7826,"ARG_OF_PERICENTER":273.9182,"MEAN_ANOMALY":86.0846,"EPHEMERIS_TYPE":0,"CLASSIFICATION_TYPE":"U","NORAD_CAT_ID":43566,"ELEMENT_SET_NO":999,"REV_AT_EPOCH":5045,"BSTAR":0,"MEAN_MOTION_DOT":-7.6e-7,"MEAN_MOTION_DDOT":0},{"OBJECT_NAME":"GSAT0220 (GALILEO 24)","OBJECT_ID":"2018-060D","EPOCH":"2026-09-10T04:40:15.337344","MEAN_MOTION":1.70475942,"ECCENTRICITY":0.00036776,"INCLINATION":57.137,"RA_OF_ASC_NODE":339.4905,"ARG_OF_PERICENTER":268.404,"MEAN_ANOMALY":91.5976,"EPHEMERIS_TYPE":0,"CLASSIFICATION_TYPE":"U","NORAD_CAT_ID":43567,"ELEMENT_SET_NO":999,"REV_AT_EPOCH":5062,"BSTAR":0,"MEAN_MOTION_DOT":-0.00000101,"MEAN_MOTION_DDOT":0}]